Lid_Strength_Index
23 23 24 25 26 32 33 32 29 31 33 26 27 25 23 25 24 21 21 20 21 23 26 28 24 23 22 21 19 17 16 16 16 16 15 15 14 14 13 13 12 13 12 11
26 22 23 25 24 26 29 34 31 29 28 22 21 28 29 24 23 21 20 19 19 19 20 21 23 22 21 22 22 20 18 17 16 16 16 16 14 14 14 13 13 14 14 14
27 23 24 26 25 24 28 30 27 30 26 29 26 26 26 25 25 22 21 21 20 21 21 20 23 20 24 24 24 22 20 18 17 17 16 16 16 15 15 14 14 14 15 16
28 26 28 21 22 21 24 25 27 26 25 26 25 26 25 26 27 25 24 22 21 22 22 22 22 22 23 24 23 22 22 20 19 18 17 17 16 17 16 15 15 15 16 16
27 31 24 21 23 23 24 21 22 24 23 22 24 27 25 23 25 25 26 25 26 27 24 23 22 22 22 22 23 22 21 21 20 20 19 18 18 17 16 16 16 16 16 16
26 27 27 21 22 22 22 23 21 22 22 23 23 27 24 23 23 23 23 23 23 24 23 24 23 23 22 22 22 22 20 20 20 20 21 19 19 19 17 15 16 16 16 17
24 25 25 19 22 21 23 20 20 21 21 22 25 22 22 23 23 23 22 22 23 23 23 23 23 23 23 23 22 21 20 19 19 19 20 21 20 20 19 17 16 16 18 16
23 26 28 21 22 22 18 20 20 20 20 21 22 22 22 22 22 22 23 23 22 23 23 23 23 23 23 23 22 21 21 20 20 20 18 19 21 19 19 19 17 17 17 17
21 22 17 19 19 19 20 19 18 21 20 20 22 22 21 21 22 22 23 23 23 23 23 23 23 24 24 23 23 23 23 23 21 21 19 19 21 19 19 18 18 18 18 18
22 18 16 15 16 18 18 19 19 20 21 21 22 23 23 22 25 24 23 23 23 24 24 24 24 22 24 23 24 24 24 24 22 22 21 22 19 20 19 19 18 18 18 19
22 20 16 15 16 17 18 18 18 19 21 22 22 23 25 24 26 27 26 26 25 24 24 24 24 24 24 23 24 24 24 24 23 22 24 22 21 21 23 21 16 17 17 18
19 14 15 15 15 17 17 17 17 20 19 21 23 23 26 25 27 30 29 29 27 26 27 26 28 26 24 24 24 24 24 23 23 23 25 22 22 22 17 16 15 15 14 15
16 16 15 14 16 16 17 17 17 18 20 22 21 23 25 27 29 27 30 31 32 29 29 30 29 28 28 28 25 23 25 24 24 23 25 25 24 23 23 21 17 16 15 15
14 15 16 15 15 17 17 17 16 19 21 21 21 24 26 28 28 26 26 28 32 33 33 32 30 29 30 31 29 28 28 21 23 25 24 24 23 23 23 23 23 22 19 16
14 14 14 15 15 15 14 15 17 18 18 19 21 22 24 25 25 25 29 28 30 33 33 32 31 29 33 33 28 32 29 28 28 27 25 22 23 23 23 23 23 23 22 20
13 13 14 15 14 14 15 15 17 17 18 19 20 20 21 23 23 25 29 29 29 29 30 30 29 29 33 33 31 30 31 23 22 26 26 25 25 24 24 24 25 24 23 22
14 14 13 13 13 13 14 14 15 16 16 17 18 18 20 22 23 25 26 28 29 32 31 30 29 27 28 30 32 30 29 28 21 24 26 26 26 26 25 24 25 25 24 21
13 13 12 12 13 13 13 13 14 15 16 16 17 18 20 22 22 24 26 28 29 30 30 29 29 27 27 27 28 29 29 29 27 26 24 25 26 26 27 26 26 26 26 22
12 12 11 12 12 12 13 13 13 14 15 17 18 19 20 21 22 23 26 27 28 27 26 27 21 22 25 25 24 28 26 27 27 26 25 21 22 23 25 26 26 25 25 22
11 10 11 11 11 12 13 12 13 16 18 18 18 19 21 22 23 24 25 25 25 26 23 22 25 25 25 24 19 25 26 26 26 25 24 24 23 24 24 20 21 22 23 20
12 12 12 12 12 12 12 15 17 20 18 18 19 19 21 22 23 23 24 25 24 20 21 19 23 24 22 22 21 22 23 23 25 25 22 21 20 19 19 21 20 19 19 20
13 13 13 13 14 14 18 20 18 18 18 19 19 20 22 23 23 24 23 24 22 17 21 22 21 21 20 16 20 22 23 22 21 20 21 20 19 19 19 19 19 18 18 19
14 14 14 14 16 19 20 19 18 18 19 20 21 21 22 22 23 24 24 22 21 19 23 23 17 15 15 22 21 21 21 21 21 21 21 20 19 19 19 20 19 18 19 19
14 15 16 17 19 19 19 19 19 20 20 20 20 21 22 23 23 22 21 19 18 19 21 21 16 16 19 24 23 22 22 22 22 22 22 16 21 21 21 20 19 19 19 18
15 17 19 20 19 19 19 20 21 21 21 22 22 22 22 22 23 23 24 20 17 20 21 15 16 18 26 23 22 23 22 22 22 21 21 21 21 22 21 21 21 21 20 19
18 18 19 18 18 18 19 19 21 21 21 23 23 23 23 22 21 23 22 20 21 19 23 22 22 22 23 23 23 23 22 22 21 21 19 21 22 22 22 21 21 21 20 20
17 16 19 19 18 19 19 20 21 21 22 23 24 23 23 22 20 21 20 22 23 23 22 22 23 21 22 22 22 22 22 22 19 19 22 24 23 22 21 20 20 19 20 20